Location: Sternwarte ZA, Rosenfeld-Brittheim
(48.2889°N, 8.6789°E)
Time: 23:05:17
(UTC+02:00)

Envisat - Visible Passes

Search period start: 22 October 2017 00:00
Search period end: 31 October 2017 23:00
Orbit: 764 x 766 km, 98.2° (Epoch: 22 October)

Date Brightness Start Highest point End Pass type
(mag) Time Alt. Az. Time Alt. Az. Time Alt. Az.
22 Oct 4.2 19:43:57 20° ENE 19:44:53 21° ENE 19:48:38 10° NNE visible
22 Oct 3.5 21:24:10 57° WNW 21:24:10 57° WNW 21:28:31 10° NNW visible
23 Oct 4.8 19:07:07 10° ENE 19:08:42 11° NE 19:10:17 10° NE visible
23 Oct 3.0 20:47:11 61° NE 20:47:11 61° NE 20:51:48 10° N visible
23 Oct 5.5 22:27:24 18° WNW 22:27:24 18° WNW 22:29:50 10° NW visible
24 Oct 3.7 20:10:12 33° ENE 20:10:14 33° ENE 20:14:44 10° N visible
24 Oct 4.5 21:50:24 33° WNW 21:50:24 33° WNW 21:53:56 10° NNW visible
25 Oct 4.4 19:33:12 17° ENE 19:33:54 18° ENE 19:37:14 10° NNE visible
25 Oct 3.5 21:13:25 56° NNW 21:13:25 56° NNW 21:17:27 10° NNW visible
25 Oct 6.0 22:53:39 10° WNW 22:53:39 10° WNW 22:53:40 10° WNW visible
26 Oct 3.3 20:36:26 48° NE 20:36:26 48° NE 20:40:37 10° N visible
26 Oct 5.3 22:16:39 20° WNW 22:16:39 20° WNW 22:19:03 10° NW visible
27 Oct 3.9 19:59:26 27° ENE 19:59:26 27° ENE 20:03:27 10° N visible
27 Oct 4.4 21:39:39 35° NW 21:39:39 35° NW 21:42:56 10° NNW visible
28 Oct 4.6 19:22:27 15° ENE 19:22:57 15° NE 19:25:43 10° NNE visible
28 Oct 3.6 21:02:40 49° N 21:02:40 49° N 21:06:21 10° NNW visible
28 Oct 5.9 22:42:52 12° WNW 22:42:52 12° WNW 22:43:35 10° NW visible
29 Oct 3.6 19:25:40 38° NE 19:25:40 38° NE 19:29:25 10° N visible
29 Oct 5.2 21:05:53 22° NW 21:05:53 22° NW 21:08:11 10° NW visible
30 Oct 4.2 18:48:40 22° NE 18:48:40 22° NE 18:52:08 10° N visible
30 Oct 4.4 20:28:53 34° NW 20:28:53 34° NW 20:31:54 10° NNW visible
31 Oct 4.8 18:11:40 12° ENE 18:12:00 12° NE 18:14:01 10° NNE visible
31 Oct 3.8 19:51:53 41° N 19:51:53 41° N 19:55:12 10° N visible
31 Oct 5.8 21:32:06 13° WNW 21:32:06 13° WNW 21:33:03 10° NW visible
